Location: Kosice
(0.0000°N, 21.2500°E)
Time: 13:27:51
(UTC+02:00)

Daily predictions for brighter satellites

Satellite Brightness Start Highest point End
(mag) Time Altitude Azimuth Time Altitude Azimuth Time Altitude Azimuth
Meteor 2-14 Rocket 4.5 18:49:55 10° N 18:55:59 67° E 19:02:04 10° SSE
H-10 deb 3.9 18:52:43 10° WSW 18:57:15 81° S 19:33:54 10° E
H-10 deb 3.9 18:52:43 10° WSW 18:57:15 81° S 19:33:53 10° E
Cosmos 468 Rocket 4.1 18:54:45 10° N 18:59:55 62° ENE 19:05:09 10° SSE
Okean O Rocket 1.7 18:59:16 10° S 19:03:44 85° WSW 19:08:10 10° NNW
Ariane H10-3 3.4 19:01:33 10° WNW 19:04:21 37° NNE 19:13:18 10° E
Spelda 2.4 19:02:13 10° W 19:04:54 81° N 19:11:32 10° E
ARGOS 4.5 19:01:23 10° ESE 19:05:13 20° ENE 19:09:00 10° NNE
Sakura Rocket 2.9 19:02:31 10° SW 19:06:16 63° SSE 19:10:54 10° ENE
Cosmos 1689 Rocket 2.7 19:04:12 10° NE 19:06:43 31° ESE 19:09:15 10° SSE
Okean 3 Rocket 4.1 19:03:30 10° NNE 19:07:31 37° E 19:11:33 10° SSE
Lacrosse 5 rocket 1.6 19:03:09 10° NNW 19:07:38 70° ENE 19:12:14 10° SE
Cosmos 1503 Rocket 4.0 19:03:44 10° S 19:08:49 61° ESE 19:13:53 10° NNE
YAOGAN 1 3.9 19:07:22 10° SE 19:10:37 21° ENE 19:13:51 10° NNE
CZ-4B R/B 3.8 19:08:25 10° NNW 19:10:57 25° WNW 19:13:29 10° SW
Cosmos 1242 Rocket 4.5 19:11:16 12° E 19:11:16 12° E 19:12:39 10° ENE
H-2A R/B 2.4 19:06:53 10° SE 19:11:27 38° ENE 19:15:57 10° N
Cosmos 1939 Rocket 4.3 19:08:22 10° S 19:12:17 42° WSW 19:16:10 10° NNW
ASTRO F (AKARI) 4.5 19:11:25 10° SSE 19:14:55 72° ENE 19:18:32 10° N
Okean-O 4.0 19:15:08 13° ESE 19:17:27 19° ENE 19:20:37 10° NNE
Meteor 2-15 Rocket 4.4 19:12:25 10° S 19:18:30 83° E 19:24:33 10° N
DMSP B5D2-2 4.1 19:14:28 10° NNE 19:19:40 61° ESE 19:24:51 10° S
Skynet4D Del rocket 3.5 19:14:21 10° WSW 19:19:41 82° SSE 19:25:17 10° ENE
CZ-2C R/B 3.7 19:15:17 10° S 19:19:56 52° WSW 19:24:42 10° NNW
Cosmos 540 Rocket 3.8 19:15:41 10° N 19:20:31 44° ENE 19:25:23 10° SSE
USA 229 DEB 4.3 19:13:22 10° N 19:20:51 50° ENE 19:27:58 11° SE
USA 229 4.3 19:13:28 10° N 19:20:56 49° ENE 19:28:00 12° SE
Cosmos 1766 Rocket 3.6 19:17:46 10° N 19:22:10 64° E 19:26:36 10° SSE
H-2A R/B 3.6 19:19:07 10° S 19:22:47 42° WSW 19:26:31 10° NNW
Feng Yun 1-1 Rocket 4.1 19:22:33 10° SSE 19:28:03 72° ENE 19:33:26 10° N
Meteor 2-3 Rocket 4.4 19:22:59 10° NNW 19:28:25 57° W 19:33:52 10° S
Cosmos 1553 Rocket 3.9 19:26:13 10° S 19:32:14 66° E 19:38:17 10° NNE
ISS -1.2 19:30:17 10° WSW 19:33:03 24° NW 19:35:48 10° N
CZ-2C R/B 3.5 19:29:51 10° W 19:33:25 26° NW 19:36:51 10° NNE
ARIANE 5 R/B 1.8 19:28:20 10° W 19:33:48 83° N 19:34:47 33° E
Ariane H10 2.1 19:33:42 10° W 19:36:11 42° S 19:36:50 33° SE
Cosmos 921 Rocket 3.3 19:32:34 10° N 19:36:28 40° E 19:38:07 27° SE
SJ-11-01 4.3 19:33:34 10° SSE 19:38:15 64° ENE 19:42:54 10° N
NOSS 3-1 (A) 4.4 19:31:26 10° NNW 19:40:16 68° ENE 19:47:59 15° SSE
Cosmos 1354 Rocket 4.5 19:38:34 10° SSW 19:43:44 62° WNW 19:48:52 10° N
Cosmos 1603 3.6 19:39:14 10° N 19:44:46 68° ENE 19:48:40 20° SSE
Cosmos 2278 Rocket 2.3 19:39:57 10° S 19:45:27 51° ESE 19:50:54 10° NNE
Cosmos 1437 Rocket 3.5 19:42:50 10° SSW 19:46:32 53° W 19:50:17 10° N
Cosmos 1417 Rocket 4.4 19:40:52 10° S 19:47:09 76° E 19:53:20 10° N
Cosmos 1814 Rocket 4.2 19:42:43 10° N 19:47:36 47° ENE 19:49:26 32° SE
Cosmos 1606 4.1 19:47:15 10° SSW 19:50:46 39° W 19:54:16 10° NNW
Cosmos 1570 Rocket 4.0 19:47:13 10° N 19:52:18 56° ENE 19:54:21 34° SE
Centaur AC-119 1.7 19:51:14 10° WNW 19:53:29 89° ENE 19:53:59 61° ESE
ATLAS 5 CENTAUR R/B 3.8 19:49:20 10° NNW 19:54:19 84° ENE 20:16:23 10° SSE
ERS-2 2.8 19:53:26 10° N 19:56:57 54° WNW 20:00:31 10° SSW
FALCON 9 DEB 3.3 19:54:34 10° NW 19:57:57 65° WSW 19:58:18 59° SSW
CSL-04 Rocket 4.0 19:58:55 39° E 19:59:17 40° ENE 20:04:11 10° N
Ariane H10 3.4 19:57:09 10° W 20:00:17 62° S 20:01:34 43° ESE
Cosmos 1408 Rocket 3.5 19:56:00 10° N 20:00:27 88° W 20:02:44 29° S
Nadezhda 2 Rocket 4.4 19:55:15 10° N 20:01:15 63° E 20:04:38 27° SSE
Meteosat 1 Rocket2 3.0 20:03:29 10° WSW 20:07:04 61° NNW 20:07:45 50° NNE
CZ-4 R/B 2.6 20:04:35 13° S 20:08:00 42° WSW 20:11:53 10° NNW
Ariane 3 Deb 4.1 19:48:12 10° W 20:10:11 60° NNW 20:12:35 33° NE
Intercosmos 24 4.3 20:06:37 10° S 20:12:21 79° W 20:16:23 10° N
Cosmos 1943 3.7 20:10:28 10° NNW 20:16:00 58° WSW 20:19:12 25° S
Cosmos 1933 3.7 20:15:50 46° SW 20:16:46 61° W 20:20:44 10° N
Cosmos 1862 4.1 20:15:42 10° NNW 20:19:36 49° W 20:20:17 44° SW
GPS 2-15 Rocket1 4.1 20:18:56 10° SW 20:22:22 39° SSW 20:22:22 39° SSW
Cosmos 883 Rocket 4.5 20:35:05 44° SSW 20:37:15 80° W 20:43:32 10° N
Centaur AC-64 4.2 20:35:55 10° WNW 20:38:55 28° W 20:38:55 28° W
Centaur D AC-28 4.2 20:38:45 10° SW 20:44:02 23° SSW 20:44:02 23° SSW
CZ-3B R/B 3.5 20:30:00 10° WSW 20:46:22 71° SSE 20:46:56 69° SE
ARIANE 5 R/B 3.3 20:36:53 10° W 20:56:16 74° WNW 20:56:16 74° WNW
